Year,Month,Day,Hour,Minute,Value (Times are PST for temperature in C)
2009,07,29,00,00,23.80
2009,07,29,00,01,23.80
2009,07,29,00,02,23.80
2009,07,29,00,03,23.70
2009,07,29,00,04,23.70
2009,07,29,00,05,23.70
2009,07,29,00,06,23.70
2009,07,29,00,07,23.70
2009,07,29,00,08,23.70
2009,07,29,00,09,23.60
2009,07,29,00,10,23.60
2009,07,29,00,11,23.50
2009,07,29,00,12,23.40
2009,07,29,00,13,23.30
2009,07,29,00,14,23.30
2009,07,29,00,15,23.30
2009,07,29,00,16,23.20
2009,07,29,00,17,23.10
2009,07,29,00,18,23.10
2009,07,29,00,19,23.00
2009,07,29,00,20,22.90
2009,07,29,00,21,22.90
2009,07,29,00,22,22.90
2009,07,29,00,23,22.80
2009,07,29,00,24,22.80
2009,07,29,00,25,22.80
2009,07,29,00,26,22.80
2009,07,29,00,27,22.70
2009,07,29,00,28,22.70
2009,07,29,00,29,22.70
2009,07,29,00,30,22.70
2009,07,29,00,31,22.70
2009,07,29,00,32,22.70
2009,07,29,00,33,22.60
2009,07,29,00,34,22.60
2009,07,29,00,35,22.60
2009,07,29,00,36,22.60
2009,07,29,00,37,22.60
2009,07,29,00,38,22.60
2009,07,29,00,39,22.60
2009,07,29,00,40,22.60
2009,07,29,00,41,22.50
2009,07,29,00,42,22.50
2009,07,29,00,43,22.40
2009,07,29,00,44,22.40
2009,07,29,00,45,22.30
2009,07,29,00,46,22.30
2009,07,29,00,47,22.20
2009,07,29,00,48,22.20
2009,07,29,00,49,22.10
2009,07,29,00,50,22.10
2009,07,29,00,51,22.10
2009,07,29,00,52,22.00
2009,07,29,00,53,22.00
2009,07,29,00,54,22.00
2009,07,29,00,55,21.90
2009,07,29,00,56,21.90
2009,07,29,00,57,21.90
2009,07,29,00,58,21.80
2009,07,29,00,59,21.80
2009,07,29,01,00,21.80
2009,07,29,01,01,21.70
2009,07,29,01,02,21.70
2009,07,29,01,03,21.70
2009,07,29,01,04,21.60
2009,07,29,01,05,21.60
2009,07,29,01,06,21.60
2009,07,29,01,07,21.60
2009,07,29,01,08,21.60
2009,07,29,01,09,21.60
2009,07,29,01,10,21.60
2009,07,29,01,11,21.60
2009,07,29,01,12,21.60
2009,07,29,01,13,21.60
2009,07,29,01,14,21.60
2009,07,29,01,15,21.60
2009,07,29,01,16,21.60
2009,07,29,01,17,21.60
2009,07,29,01,18,21.60
2009,07,29,01,19,21.60
2009,07,29,01,20,21.60
2009,07,29,01,21,21.70
2009,07,29,01,22,21.70
2009,07,29,01,23,21.70
2009,07,29,01,24,21.70
2009,07,29,01,25,21.80
2009,07,29,01,26,21.80
2009,07,29,01,27,21.80
2009,07,29,01,28,21.80
2009,07,29,01,29,21.80
2009,07,29,01,30,21.90
2009,07,29,01,31,21.90
2009,07,29,01,32,21.90
2009,07,29,01,33,21.90
2009,07,29,01,34,21.90
2009,07,29,01,35,21.90
2009,07,29,01,36,21.90
2009,07,29,01,37,21.90
2009,07,29,01,38,21.90
2009,07,29,01,39,21.90
2009,07,29,01,40,21.90
2009,07,29,01,41,21.90
2009,07,29,01,42,21.80
2009,07,29,01,43,21.80
2009,07,29,01,44,21.80
2009,07,29,01,45,21.70
2009,07,29,01,46,21.70
2009,07,29,01,47,21.70
2009,07,29,01,48,21.60
2009,07,29,01,49,21.60
2009,07,29,01,50,21.60
2009,07,29,01,51,21.60
2009,07,29,01,52,21.60
2009,07,29,01,53,21.60
2009,07,29,01,54,21.60
2009,07,29,01,55,21.60
2009,07,29,01,56,21.60
2009,07,29,01,57,21.60
2009,07,29,01,58,21.60
2009,07,29,01,59,21.60
2009,07,29,02,00,21.60
2009,07,29,02,01,21.60
2009,07,29,02,02,21.60
2009,07,29,02,03,21.60
2009,07,29,02,04,21.60
2009,07,29,02,05,21.60
2009,07,29,02,06,21.60
2009,07,29,02,07,21.60
2009,07,29,02,08,21.60
2009,07,29,02,09,21.60
2009,07,29,02,10,21.60
2009,07,29,02,11,21.50
2009,07,29,02,12,21.40
2009,07,29,02,13,21.40
2009,07,29,02,14,21.40
2009,07,29,02,15,21.40
2009,07,29,02,16,21.40
2009,07,29,02,17,21.40
2009,07,29,02,18,21.40
2009,07,29,02,19,21.30
2009,07,29,02,20,21.30
2009,07,29,02,21,21.30
2009,07,29,02,22,21.30
2009,07,29,02,23,21.30
2009,07,29,02,24,21.30
2009,07,29,02,25,21.30
2009,07,29,02,26,21.30
2009,07,29,02,27,21.40
2009,07,29,02,28,21.40
2009,07,29,02,29,21.40
2009,07,29,02,30,21.30
2009,07,29,02,31,21.30
2009,07,29,02,32,21.30
2009,07,29,02,33,21.30
2009,07,29,02,34,21.30
2009,07,29,02,35,21.30
2009,07,29,02,36,21.30
2009,07,29,02,37,21.30
2009,07,29,02,38,21.30
2009,07,29,02,39,21.30
2009,07,29,02,40,21.30
2009,07,29,02,41,21.30
2009,07,29,02,42,21.30
2009,07,29,02,43,21.30
2009,07,29,02,44,21.30
2009,07,29,02,45,21.30
2009,07,29,02,46,21.30
2009,07,29,02,47,21.30
2009,07,29,02,48,21.30
2009,07,29,02,49,21.40
2009,07,29,02,50,21.40
2009,07,29,02,51,21.40
2009,07,29,02,52,21.40
2009,07,29,02,53,21.40
2009,07,29,02,54,21.40
2009,07,29,02,55,21.50
2009,07,29,02,56,21.60
2009,07,29,02,57,21.60
2009,07,29,02,58,21.60
2009,07,29,02,59,21.60
2009,07,29,03,00,21.60
2009,07,29,03,01,21.60
2009,07,29,03,02,21.60
2009,07,29,03,03,21.60
2009,07,29,03,04,21.60
2009,07,29,03,05,21.70
2009,07,29,03,06,21.70
2009,07,29,03,07,21.80
2009,07,29,03,08,21.90
2009,07,29,03,09,22.00
2009,07,29,03,10,22.10
2009,07,29,03,11,22.10
2009,07,29,03,12,22.20
2009,07,29,03,13,22.30
2009,07,29,03,14,22.40
2009,07,29,03,15,22.40
2009,07,29,03,16,22.50
2009,07,29,03,17,22.60
2009,07,29,03,18,22.60
2009,07,29,03,19,22.60
2009,07,29,03,20,22.70
2009,07,29,03,21,22.70
2009,07,29,03,22,22.70
2009,07,29,03,23,22.80
2009,07,29,03,24,22.80
2009,07,29,03,25,22.80
2009,07,29,03,26,22.80
2009,07,29,03,27,22.80
2009,07,29,03,28,22.80
2009,07,29,03,29,22.80
2009,07,29,03,30,22.80
2009,07,29,03,31,22.80
2009,07,29,03,32,22.80
2009,07,29,03,33,22.80
2009,07,29,03,34,22.80
2009,07,29,03,35,22.80
2009,07,29,03,36,22.80
2009,07,29,03,37,22.80
2009,07,29,03,38,22.80
2009,07,29,03,39,22.80
2009,07,29,03,40,22.80
2009,07,29,03,41,22.80
2009,07,29,03,42,22.80
2009,07,29,03,43,22.80
2009,07,29,03,44,22.80
2009,07,29,03,45,22.80
2009,07,29,03,46,22.80
2009,07,29,03,47,22.80
2009,07,29,03,48,22.80
2009,07,29,03,49,22.80
2009,07,29,03,50,22.70
2009,07,29,03,51,22.70
2009,07,29,03,52,22.70
2009,07,29,03,53,22.70
2009,07,29,03,54,22.70
2009,07,29,03,55,22.70
2009,07,29,03,56,22.60
2009,07,29,03,57,22.60
2009,07,29,03,58,22.60
2009,07,29,03,59,22.60
2009,07,29,04,00,22.60
2009,07,29,04,01,22.70
2009,07,29,04,02,22.70
2009,07,29,04,03,22.70
2009,07,29,04,04,22.70
2009,07,29,04,05,22.70
2009,07,29,04,06,22.70
2009,07,29,04,07,22.70
2009,07,29,04,08,22.70
2009,07,29,04,09,22.70
2009,07,29,04,10,22.70
2009,07,29,04,11,22.60
2009,07,29,04,12,22.60
2009,07,29,04,13,22.60
2009,07,29,04,14,22.50
2009,07,29,04,15,22.50
2009,07,29,04,16,22.50
2009,07,29,04,17,22.40
2009,07,29,04,18,22.40
2009,07,29,04,19,22.40
2009,07,29,04,20,22.40
2009,07,29,04,21,22.30
2009,07,29,04,22,22.30
2009,07,29,04,23,22.30
2009,07,29,04,24,22.20
2009,07,29,04,25,22.20
2009,07,29,04,26,22.20
2009,07,29,04,27,22.20
2009,07,29,04,28,22.10
2009,07,29,04,29,22.10
2009,07,29,04,30,22.10
2009,07,29,04,31,22.20
2009,07,29,04,32,22.20
2009,07,29,04,33,22.20
2009,07,29,04,34,22.20
2009,07,29,04,35,22.20
2009,07,29,04,36,22.20
2009,07,29,04,37,22.20
2009,07,29,04,38,22.20
2009,07,29,04,39,22.10
2009,07,29,04,40,22.10
2009,07,29,04,41,22.10
2009,07,29,04,42,22.10
2009,07,29,04,43,22.10
2009,07,29,04,44,22.10
2009,07,29,04,45,22.10
2009,07,29,04,46,22.10
2009,07,29,04,47,22.00
2009,07,29,04,48,22.00
2009,07,29,04,49,22.00
2009,07,29,04,50,21.90
2009,07,29,04,51,21.90
2009,07,29,04,52,21.90
2009,07,29,04,53,21.80
2009,07,29,04,54,21.80
2009,07,29,04,55,21.70
2009,07,29,04,56,21.70
2009,07,29,04,57,21.70
2009,07,29,04,58,21.60
2009,07,29,04,59,21.60
2009,07,29,05,00,21.60
2009,07,29,05,01,21.60
2009,07,29,05,02,21.60
2009,07,29,05,03,21.60
2009,07,29,05,04,21.60
2009,07,29,05,05,21.50
2009,07,29,05,06,21.40
2009,07,29,05,07,21.40
2009,07,29,05,08,21.40
2009,07,29,05,09,21.40
2009,07,29,05,10,21.40
2009,07,29,05,11,21.40
2009,07,29,05,12,21.30
2009,07,29,05,13,21.30
2009,07,29,05,14,21.30
2009,07,29,05,15,21.30
2009,07,29,05,16,21.30
2009,07,29,05,17,21.30
2009,07,29,05,18,21.30
2009,07,29,05,19,21.30
2009,07,29,05,20,21.30
2009,07,29,05,21,21.40
2009,07,29,05,22,21.50
2009,07,29,05,23,21.60
2009,07,29,05,24,21.60
2009,07,29,05,25,21.60
2009,07,29,05,26,21.60
2009,07,29,05,27,21.60
2009,07,29,05,28,21.60
2009,07,29,05,29,21.70
2009,07,29,05,30,21.70
2009,07,29,05,31,21.70
2009,07,29,05,32,21.70
2009,07,29,05,33,21.70
2009,07,29,05,34,21.80
2009,07,29,05,35,21.80
2009,07,29,05,36,21.80
2009,07,29,05,37,21.90
2009,07,29,05,38,21.90
2009,07,29,05,39,22.00
2009,07,29,05,40,22.00
2009,07,29,05,41,22.00
2009,07,29,05,42,22.10
2009,07,29,05,43,22.10
2009,07,29,05,44,22.20
2009,07,29,05,45,22.20
2009,07,29,05,46,22.20
2009,07,29,05,47,22.20
2009,07,29,05,48,22.30
2009,07,29,05,49,22.30
2009,07,29,05,50,22.30
2009,07,29,05,51,22.20
2009,07,29,05,52,22.20
2009,07,29,05,53,22.20
2009,07,29,05,54,22.20
2009,07,29,05,55,22.10
2009,07,29,05,56,22.10
2009,07,29,05,57,22.10
2009,07,29,05,58,22.00
2009,07,29,05,59,22.00
2009,07,29,06,00,22.00
2009,07,29,06,01,22.00
2009,07,29,06,02,22.00
2009,07,29,06,03,22.00
2009,07,29,06,04,22.00
2009,07,29,06,05,22.00
2009,07,29,06,06,22.00
2009,07,29,06,07,22.00
2009,07,29,06,08,22.10
2009,07,29,06,09,22.10
2009,07,29,06,10,22.10
2009,07,29,06,11,22.20
2009,07,29,06,12,22.20
2009,07,29,06,13,22.20
2009,07,29,06,14,22.30
2009,07,29,06,15,22.30
2009,07,29,06,16,22.30
2009,07,29,06,17,22.30
2009,07,29,06,18,22.30
2009,07,29,06,19,22.30
2009,07,29,06,20,22.30
2009,07,29,06,21,22.30
2009,07,29,06,22,22.30
2009,07,29,06,23,22.30
2009,07,29,06,24,22.30
2009,07,29,06,25,22.30
2009,07,29,06,26,22.30
2009,07,29,06,27,22.30
2009,07,29,06,28,22.30
2009,07,29,06,29,22.30
2009,07,29,06,30,22.30
2009,07,29,06,31,22.30
2009,07,29,06,32,22.30
2009,07,29,06,33,22.30
2009,07,29,06,34,22.30
2009,07,29,06,35,22.30
2009,07,29,06,36,22.40
2009,07,29,06,37,22.40
2009,07,29,06,38,22.40
2009,07,29,06,39,22.40
2009,07,29,06,40,22.40
2009,07,29,06,41,22.40
2009,07,29,06,42,22.40
2009,07,29,06,43,22.50
2009,07,29,06,44,22.50
2009,07,29,06,45,22.50
2009,07,29,06,46,22.50
2009,07,29,06,47,22.60
2009,07,29,06,48,22.60
2009,07,29,06,49,22.60
2009,07,29,06,50,22.60
2009,07,29,06,51,22.70
2009,07,29,06,52,22.70
2009,07,29,06,53,22.70
2009,07,29,06,54,22.70
2009,07,29,06,55,22.80
2009,07,29,06,56,22.80
2009,07,29,06,57,22.80
2009,07,29,06,58,22.90
2009,07,29,06,59,22.90
2009,07,29,07,00,22.90
2009,07,29,07,01,22.90
2009,07,29,07,02,23.00
2009,07,29,07,03,23.00
2009,07,29,07,04,23.10
2009,07,29,07,05,23.00
2009,07,29,07,06,22.90
2009,07,29,07,07,22.90
2009,07,29,07,08,22.90
2009,07,29,07,09,22.90
2009,07,29,07,10,22.90
2009,07,29,07,11,22.80
2009,07,29,07,12,22.80
2009,07,29,07,13,22.70
2009,07,29,07,14,22.70
2009,07,29,07,15,22.70
2009,07,29,07,16,22.70
2009,07,29,07,17,22.70
2009,07,29,07,18,22.70
2009,07,29,07,19,22.70
2009,07,29,07,20,22.70
2009,07,29,07,21,22.70
2009,07,29,07,22,22.70
2009,07,29,07,23,22.70
2009,07,29,07,24,22.80
2009,07,29,07,25,22.80
2009,07,29,07,26,22.80
2009,07,29,07,27,22.90
2009,07,29,07,28,22.90
2009,07,29,07,29,22.90
2009,07,29,07,30,22.90
2009,07,29,07,31,22.90
2009,07,29,07,32,22.90
2009,07,29,07,33,22.90
2009,07,29,07,34,22.90
2009,07,29,07,35,22.90
2009,07,29,07,36,22.90
2009,07,29,07,37,22.90
2009,07,29,07,38,22.90
2009,07,29,07,39,22.90
2009,07,29,07,40,22.90
2009,07,29,07,41,23.00
2009,07,29,07,42,23.10
2009,07,29,07,43,23.10
2009,07,29,07,44,23.10
2009,07,29,07,45,23.20
2009,07,29,07,46,23.20
2009,07,29,07,47,23.20
2009,07,29,07,48,23.30
2009,07,29,07,49,23.30
2009,07,29,07,50,23.30
2009,07,29,07,51,23.30
2009,07,29,07,52,23.40
2009,07,29,07,53,23.40
2009,07,29,07,54,23.40
2009,07,29,07,55,23.60
2009,07,29,07,56,23.60
2009,07,29,07,57,23.60
2009,07,29,07,58,23.70
2009,07,29,07,59,23.70
2009,07,29,08,00,23.70
2009,07,29,08,01,23.70
2009,07,29,08,02,23.70
2009,07,29,08,03,23.80
2009,07,29,08,04,23.80
2009,07,29,08,05,23.90
2009,07,29,08,06,23.90
2009,07,29,08,07,24.00
2009,07,29,08,08,24.10
2009,07,29,08,09,24.10
2009,07,29,08,10,24.10
2009,07,29,08,11,24.20
2009,07,29,08,12,24.20
2009,07,29,08,13,24.30
2009,07,29,08,14,24.40
2009,07,29,08,15,24.40
2009,07,29,08,16,24.50
2009,07,29,08,17,24.50
2009,07,29,08,18,24.60
2009,07,29,08,19,24.70
2009,07,29,08,20,24.70
2009,07,29,08,21,24.80
2009,07,29,08,22,24.90
2009,07,29,08,23,25.00
2009,07,29,08,24,25.20
2009,07,29,08,25,25.30
2009,07,29,08,26,25.50
2009,07,29,08,27,25.60
2009,07,29,08,28,25.80
2009,07,29,08,29,25.90
2009,07,29,08,30,26.10
2009,07,29,08,31,26.10
2009,07,29,08,32,26.30
2009,07,29,08,33,26.40
2009,07,29,08,34,26.50
2009,07,29,08,35,26.60
2009,07,29,08,36,26.70
2009,07,29,08,37,26.80
2009,07,29,08,38,26.90
2009,07,29,08,39,26.90
2009,07,29,08,40,26.90
2009,07,29,08,41,27.00
2009,07,29,08,42,27.10
2009,07,29,08,43,27.10
2009,07,29,08,44,27.20
2009,07,29,08,45,27.30
2009,07,29,08,46,27.30
2009,07,29,08,47,27.30
2009,07,29,08,48,27.30
2009,07,29,08,49,27.40
2009,07,29,08,50,27.40
2009,07,29,08,51,27.50
2009,07,29,08,52,27.60
2009,07,29,08,53,27.60
2009,07,29,08,54,27.60
2009,07,29,08,55,27.70
2009,07,29,08,56,27.80
2009,07,29,08,57,27.80
2009,07,29,08,58,27.80
2009,07,29,08,59,27.80
2009,07,29,09,00,27.80
2009,07,29,09,01,27.80
2009,07,29,09,02,27.90
2009,07,29,09,03,27.90
2009,07,29,09,04,27.90
2009,07,29,09,05,28.00
2009,07,29,09,06,28.00
2009,07,29,09,07,28.10
2009,07,29,09,08,28.10
2009,07,29,09,09,28.10
2009,07,29,09,10,28.10
2009,07,29,09,11,28.10
2009,07,29,09,12,28.10
2009,07,29,09,13,28.00
2009,07,29,09,14,28.00
2009,07,29,09,15,28.00
2009,07,29,09,16,28.00
2009,07,29,09,17,28.10
2009,07,29,09,18,28.10
2009,07,29,09,19,28.10
2009,07,29,09,20,28.20
2009,07,29,09,21,28.20
2009,07,29,09,22,28.20
2009,07,29,09,23,28.10
2009,07,29,09,24,28.10
2009,07,29,09,25,28.10
2009,07,29,09,26,28.10
2009,07,29,09,27,28.10
2009,07,29,09,28,28.10
2009,07,29,09,29,28.20
2009,07,29,09,30,28.20
2009,07,29,09,31,28.30
2009,07,29,09,32,28.30
2009,07,29,09,33,28.30
2009,07,29,09,34,28.30
2009,07,29,09,35,28.30
2009,07,29,09,36,28.20
2009,07,29,09,37,28.20
2009,07,29,09,38,28.10
2009,07,29,09,39,28.10
2009,07,29,09,40,28.00
2009,07,29,09,41,28.10
2009,07,29,09,42,28.10
2009,07,29,09,43,28.00
2009,07,29,09,44,28.10
2009,07,29,09,45,28.10
2009,07,29,09,46,28.10
2009,07,29,09,47,28.10
2009,07,29,09,48,28.10
2009,07,29,09,49,28.20
2009,07,29,09,50,28.20
2009,07,29,09,51,28.20
2009,07,29,09,52,28.20
2009,07,29,09,53,28.20
2009,07,29,09,54,28.30
2009,07,29,09,55,28.30
2009,07,29,09,56,28.40
2009,07,29,09,57,28.40
2009,07,29,09,58,28.50
2009,07,29,09,59,28.60
2009,07,29,10,00,28.60
2009,07,29,10,01,28.60
2009,07,29,10,02,28.60
2009,07,29,10,03,28.60
2009,07,29,10,04,28.60
2009,07,29,10,05,28.50
2009,07,29,10,06,28.40
2009,07,29,10,07,28.40
2009,07,29,10,08,28.40
2009,07,29,10,09,28.40
2009,07,29,10,10,28.40
2009,07,29,10,11,28.40
2009,07,29,10,12,28.40
2009,07,29,10,13,28.40
2009,07,29,10,14,28.50
2009,07,29,10,15,28.60
2009,07,29,10,16,28.60
2009,07,29,10,17,28.70
2009,07,29,10,18,28.70
2009,07,29,10,19,28.70
2009,07,29,10,20,28.80
2009,07,29,10,21,28.80
2009,07,29,10,22,28.90
2009,07,29,10,23,28.90
2009,07,29,10,24,28.90
2009,07,29,10,25,29.10
2009,07,29,10,26,29.10
2009,07,29,10,27,29.10
2009,07,29,10,28,29.20
2009,07,29,10,29,29.20
2009,07,29,10,30,29.30
2009,07,29,10,31,29.30
2009,07,29,10,32,29.40
2009,07,29,10,33,29.40
2009,07,29,10,34,29.50
2009,07,29,10,35,29.60
2009,07,29,10,36,29.70
2009,07,29,10,37,29.80
2009,07,29,10,38,29.90
2009,07,29,10,39,29.90
2009,07,29,10,40,29.90
2009,07,29,10,41,30.10
2009,07,29,10,42,30.10
2009,07,29,10,43,30.10
2009,07,29,10,44,30.10
2009,07,29,10,45,30.10
2009,07,29,10,46,30.10
2009,07,29,10,47,30.20
2009,07,29,10,48,30.20
2009,07,29,10,49,30.30
2009,07,29,10,50,30.30
2009,07,29,10,51,30.40
2009,07,29,10,52,30.40
2009,07,29,10,53,30.40
2009,07,29,10,54,30.40
2009,07,29,10,55,30.40
2009,07,29,10,56,30.40
2009,07,29,10,57,30.50
2009,07,29,10,58,30.60
2009,07,29,10,59,30.60
2009,07,29,11,00,30.70
2009,07,29,11,01,30.70
2009,07,29,11,02,30.70
2009,07,29,11,03,30.80
2009,07,29,11,04,30.80
2009,07,29,11,05,30.80
2009,07,29,11,06,30.90
2009,07,29,11,07,30.90
2009,07,29,11,08,31.00
2009,07,29,11,09,31.00
2009,07,29,11,10,31.10
2009,07,29,11,11,31.20
2009,07,29,11,12,31.10
2009,07,29,11,13,31.20
2009,07,29,11,14,31.20
2009,07,29,11,15,31.20
2009,07,29,11,16,31.20
2009,07,29,11,17,31.20
2009,07,29,11,18,31.20
2009,07,29,11,19,31.20
2009,07,29,11,20,31.20
2009,07,29,11,21,31.30
2009,07,29,11,22,31.40
2009,07,29,11,23,31.40
2009,07,29,11,24,31.50
2009,07,29,11,25,31.60
2009,07,29,11,26,31.60
2009,07,29,11,27,31.60
2009,07,29,11,28,31.60
2009,07,29,11,29,31.70
2009,07,29,11,30,31.70
2009,07,29,11,31,31.70
2009,07,29,11,32,31.70
2009,07,29,11,33,31.70
2009,07,29,11,34,31.80
2009,07,29,11,35,31.80
2009,07,29,11,36,31.80
2009,07,29,11,37,31.80
2009,07,29,11,38,31.80
2009,07,29,11,39,31.80
2009,07,29,11,40,31.80
2009,07,29,11,41,31.80
2009,07,29,11,42,31.70
2009,07,29,11,43,31.70
2009,07,29,11,44,31.80
2009,07,29,11,45,31.80
2009,07,29,11,46,31.80
2009,07,29,11,47,31.90
2009,07,29,11,48,31.90
2009,07,29,11,49,31.90
2009,07,29,11,50,31.90
2009,07,29,11,51,31.80
2009,07,29,11,52,31.80
2009,07,29,11,53,31.90
2009,07,29,11,54,31.90
2009,07,29,11,55,32.00
2009,07,29,11,56,32.00
2009,07,29,11,57,31.90
2009,07,29,11,58,32.00
2009,07,29,11,59,32.10
2009,07,29,12,00,32.00
2009,07,29,12,01,32.00
2009,07,29,12,02,32.10
2009,07,29,12,03,32.10
2009,07,29,12,04,32.10
2009,07,29,12,05,32.00
2009,07,29,12,06,31.90
2009,07,29,12,07,31.90
2009,07,29,12,08,31.90
2009,07,29,12,09,31.90
2009,07,29,12,10,31.90
2009,07,29,12,11,31.90
2009,07,29,12,12,31.80
2009,07,29,12,13,31.80
2009,07,29,12,14,31.80
2009,07,29,12,15,31.80
2009,07,29,12,16,31.80
2009,07,29,12,17,31.90
2009,07,29,12,18,31.90
2009,07,29,12,19,31.90
2009,07,29,12,20,32.00
2009,07,29,12,21,32.10
2009,07,29,12,22,32.20
2009,07,29,12,23,32.20
2009,07,29,12,24,32.20
2009,07,29,12,25,32.20
2009,07,29,12,26,32.20
2009,07,29,12,27,32.20
2009,07,29,12,28,32.20
2009,07,29,12,29,32.20
2009,07,29,12,30,32.20
2009,07,29,12,31,32.20
2009,07,29,12,32,32.20
2009,07,29,12,33,32.30
2009,07,29,12,34,32.30
2009,07,29,12,35,32.30
2009,07,29,12,36,32.30
2009,07,29,12,37,32.40
2009,07,29,12,38,32.40
2009,07,29,12,39,32.40
2009,07,29,12,40,32.50
2009,07,29,12,41,32.50
2009,07,29,12,42,32.60
2009,07,29,12,43,32.80
2009,07,29,12,44,32.80
2009,07,29,12,45,32.80
2009,07,29,12,46,32.60
2009,07,29,12,47,32.60
2009,07,29,12,48,32.60
2009,07,29,12,49,32.60
2009,07,29,12,50,32.60
2009,07,29,12,51,32.60
2009,07,29,12,52,32.70
2009,07,29,12,53,32.80
2009,07,29,12,54,32.90
2009,07,29,12,55,32.90
2009,07,29,12,56,32.90
2009,07,29,12,57,33.00
2009,07,29,12,58,33.00
2009,07,29,12,59,33.00
2009,07,29,13,00,33.00
2009,07,29,13,01,33.00
2009,07,29,13,02,33.00
2009,07,29,13,03,33.00
2009,07,29,13,04,33.00
2009,07,29,16,14,36.00
2009,07,29,16,15,35.90
2009,07,29,16,16,35.90
2009,07,29,16,17,35.70
2009,07,29,16,18,35.70
2009,07,29,16,19,35.70
2009,07,29,16,20,35.70
2009,07,29,16,21,35.60
2009,07,29,16,22,35.60
2009,07,29,16,23,35.50
2009,07,29,16,24,35.50
2009,07,29,16,25,35.50
2009,07,29,16,26,35.60
2009,07,29,16,27,35.60
2009,07,29,16,28,35.60
2009,07,29,16,29,35.60
2009,07,29,16,30,35.60
2009,07,29,16,31,35.60
2009,07,29,16,32,35.70
2009,07,29,16,33,35.60
2009,07,29,16,34,35.60
2009,07,29,16,35,35.60
2009,07,29,16,36,35.60
2009,07,29,16,37,35.50
2009,07,29,16,38,35.50
2009,07,29,16,39,35.50
2009,07,29,16,40,35.50
2009,07,29,16,41,35.30
2009,07,29,16,42,35.30
2009,07,29,16,43,35.30
2009,07,29,16,44,35.20
2009,07,29,16,45,35.20
2009,07,29,16,46,35.20
2009,07,29,16,47,35.10
2009,07,29,16,48,35.10
2009,07,29,16,49,35.00
2009,07,29,16,50,34.90
2009,07,29,16,51,34.90
2009,07,29,16,52,34.80
2009,07,29,16,53,34.70
2009,07,29,16,54,34.70
2009,07,29,16,55,34.60
2009,07,29,16,56,34.60
2009,07,29,16,57,34.40
2009,07,29,16,58,34.40
2009,07,29,16,59,34.40
2009,07,29,17,00,34.30
2009,07,29,17,01,34.30
2009,07,29,17,02,34.30
2009,07,29,17,03,34.30
2009,07,29,17,04,34.30
2009,07,29,17,05,34.30
2009,07,29,17,06,34.30
2009,07,29,17,07,34.30
2009,07,29,17,08,34.20
2009,07,29,17,09,34.20
2009,07,29,17,10,34.20
2009,07,29,17,11,34.20
2009,07,29,17,12,34.10
2009,07,29,17,13,34.10
2009,07,29,17,14,34.10
2009,07,29,17,15,34.10
2009,07,29,17,16,34.10
2009,07,29,17,17,34.00
2009,07,29,17,18,34.00
2009,07,29,17,19,34.00
2009,07,29,17,20,34.00
2009,07,29,17,21,34.00
2009,07,29,17,22,33.80
2009,07,29,17,23,33.80
2009,07,29,17,24,33.80
2009,07,29,17,25,33.80
2009,07,29,17,26,33.80
2009,07,29,17,27,33.80
2009,07,29,17,28,33.80
2009,07,29,17,29,33.80
2009,07,29,17,30,33.80
2009,07,29,17,31,33.80
2009,07,29,17,32,33.80
2009,07,29,17,33,33.80
2009,07,29,17,34,33.80
2009,07,29,17,35,33.80
2009,07,29,17,36,33.70
2009,07,29,17,37,33.70
2009,07,29,17,38,33.70
2009,07,29,17,39,33.70
2009,07,29,17,40,33.70
2009,07,29,17,41,33.70
2009,07,29,17,42,33.70
2009,07,29,17,43,33.70
2009,07,29,17,44,33.70
2009,07,29,17,45,33.70
2009,07,29,17,46,33.70
2009,07,29,17,47,33.70
2009,07,29,17,48,33.70
2009,07,29,17,49,33.70
2009,07,29,17,50,33.70
2009,07,29,17,51,33.70
2009,07,29,17,52,33.70
2009,07,29,17,53,33.70
2009,07,29,17,54,33.70
2009,07,29,17,55,33.70
2009,07,29,17,56,33.60
2009,07,29,17,57,33.60
2009,07,29,17,58,33.60
2009,07,29,17,59,33.60
2009,07,29,18,00,33.60
2009,07,29,18,01,33.50
2009,07,29,18,02,33.50
2009,07,29,18,03,33.50
2009,07,29,18,04,33.50
2009,07,29,18,05,33.50
2009,07,29,18,06,33.50
2009,07,29,18,07,33.60
2009,07,29,18,08,33.60
2009,07,29,18,09,33.60
2009,07,29,18,10,33.60
2009,07,29,18,11,33.60
2009,07,29,18,12,33.60
2009,07,29,18,13,33.50
2009,07,29,18,14,33.50
2009,07,29,18,15,33.50
2009,07,29,18,16,33.50
2009,07,29,18,17,33.50
2009,07,29,18,18,33.50
2009,07,29,18,19,33.50
2009,07,29,18,20,33.60
2009,07,29,18,21,33.60
2009,07,29,18,22,33.60
2009,07,29,18,23,33.60
2009,07,29,18,24,33.60
2009,07,29,18,25,33.60
2009,07,29,18,26,33.70
2009,07,29,18,27,33.60
2009,07,29,18,28,33.60
2009,07,29,18,29,33.60
2009,07,29,18,30,33.60
2009,07,29,18,31,33.50
2009,07,29,18,32,33.50
2009,07,29,18,33,33.40
2009,07,29,18,34,33.40
2009,07,29,18,35,33.40
2009,07,29,18,36,33.40
2009,07,29,18,37,33.40
2009,07,29,18,38,33.40
2009,07,29,18,39,33.50
2009,07,29,18,40,33.50
2009,07,29,18,41,33.50
2009,07,29,18,42,33.40
2009,07,29,18,43,33.40
2009,07,29,18,44,33.40
2009,07,29,18,45,33.40
2009,07,29,18,46,33.40
2009,07,29,18,47,33.40
2009,07,29,18,48,33.30
2009,07,29,18,49,33.20
2009,07,29,18,50,33.20
2009,07,29,18,51,33.20
2009,07,29,18,52,33.20
2009,07,29,18,53,33.20
2009,07,29,18,54,33.10
2009,07,29,18,55,33.10
2009,07,29,18,56,33.00
2009,07,29,18,57,33.00
2009,07,29,18,58,32.90
2009,07,29,18,59,32.90
2009,07,29,19,00,32.90
2009,07,29,19,01,32.80
2009,07,29,19,02,32.80
2009,07,29,19,03,32.70
2009,07,29,19,04,32.60
2009,07,29,19,05,32.60
2009,07,29,19,06,32.80
2009,07,29,19,07,32.80
2009,07,29,19,08,32.80
2009,07,29,19,09,32.90
2009,07,29,19,10,32.90
2009,07,29,19,11,32.90
2009,07,29,19,12,32.90
2009,07,29,19,13,32.90
2009,07,29,19,14,32.80
2009,07,29,19,15,32.80
2009,07,29,19,16,32.80
2009,07,29,19,17,32.60
2009,07,29,19,18,32.60
2009,07,29,19,19,32.60
2009,07,29,19,20,32.50
2009,07,29,19,21,32.50
2009,07,29,19,22,32.50
2009,07,29,19,23,32.40
2009,07,29,19,24,32.40
2009,07,29,19,25,32.40
2009,07,29,19,26,32.30
2009,07,29,19,27,32.30
2009,07,29,19,28,32.20
2009,07,29,19,29,32.20
2009,07,29,19,30,32.10
2009,07,29,19,31,32.10
2009,07,29,19,32,32.10
2009,07,29,19,33,32.00
2009,07,29,19,34,31.90
2009,07,29,19,35,31.90
2009,07,29,19,36,31.90
2009,07,29,19,37,31.80
2009,07,29,19,38,31.70
2009,07,29,19,39,31.70
2009,07,29,19,40,31.60
2009,07,29,19,41,31.60
2009,07,29,19,42,31.50
2009,07,29,19,43,31.40
2009,07,29,19,44,31.40
2009,07,29,19,45,31.30
2009,07,29,19,46,31.30
2009,07,29,19,47,31.20
2009,07,29,19,48,31.20
2009,07,29,19,49,31.10
2009,07,29,19,50,31.10
2009,07,29,19,51,31.00
2009,07,29,19,52,31.00
2009,07,29,19,53,30.90
2009,07,29,19,54,30.90
2009,07,29,19,55,30.90
2009,07,29,19,56,30.90
2009,07,29,19,57,30.90
2009,07,29,19,58,30.80
2009,07,29,19,59,30.80
2009,07,29,20,00,30.80
2009,07,29,20,01,30.70
2009,07,29,20,02,30.70
2009,07,29,20,03,30.70
2009,07,29,20,04,30.60
2009,07,29,20,05,30.60
2009,07,29,20,06,30.50
2009,07,29,20,07,30.40
2009,07,29,20,08,30.40
2009,07,29,20,09,30.30
2009,07,29,20,10,30.30
2009,07,29,20,11,30.30
2009,07,29,20,12,30.30
2009,07,29,20,13,30.30
2009,07,29,20,14,30.20
2009,07,29,20,15,30.20
2009,07,29,20,16,30.20
2009,07,29,20,17,30.20
2009,07,29,20,18,30.20
2009,07,29,20,19,30.10
2009,07,29,20,20,30.10
2009,07,29,20,21,30.10
2009,07,29,20,22,30.10
2009,07,29,20,23,30.10
2009,07,29,20,24,30.00
2009,07,29,20,25,29.90
2009,07,29,20,26,29.90
2009,07,29,20,27,29.80
2009,07,29,20,28,29.80